User: anonymous   Login
Location: Unspecified
(0.0000°N, 0.0000°E)
Time: 07:36:45
(UTC+02:00)
Language:

ARIANE DEB (SPELDA) - Orbit

View from above orbital plane
View from above orbital plane
View from above satellite
View from above satellite

Ground track
Ground track

The orbit data is extracted from the following two-line orbital elements,

1 27402U 02015D   15145.64390899  .00002111  00000-0  16477-2 0  9999
2 27402 003.5068 094.6808 7106183 012.8464 349.4342 02.46807550115345
Epoch (UTC): 25 May 2015 15:27:13
Eccentricity: 0.7106183
inclination: 3.5068°
perigee height: 315 km
apogee height: 33187 km
right ascension of ascending node: 94.6808°
argument of perigee: 12.8464°
revolutions per day: 2.46807550
mean anomaly at epoch: 349.4342°
orbit number at epoch: 11534

The dashed part of the orbit path shows where the satellite is in the earth's shadow,  

DLR